Location: Eitze
(52.9840°N, 9.6894°E)
Time: 20:40:28
(UTC+00:00)

CZ-4C R/B - Pass Details

Date: 19 May 2025
Orbit: 425 x 537 km, 98.0° (Epoch: 20 June)

Event Time Altitude Azimuth Distance (km) Brightness Sun altitude
Rises 21:13:09 0° 23° (NNE) 2,618 7.4 -12.2°
Reaches altitude 10° 21:15:31 10° 35° (NE) 1,707 6.2 -12.4°
Maximum altitude 21:18:41 27° 95° (E) 960 4.3 -12.6°
Enters shadow 21:20:08 20° 134° (SE) 1,144 4.4 -12.7°
